Temperature
4 3 3 4 3 3 2 1 1 1 0 -0 -1 -1 -1 -2 -4 -5 -7 -8 -9 -10 -10 -10 -10 -11 -11 -11 -12 -12 -12 -12 -12 -12 -12 -12 -12 -11 -11 -10 -10 -9 -8 -8
3 2 2 2 2 2 2 2 1 0 -0 0 1 -0 -1 -3 -5 -6 -8 -9 -9 -10 -10 -10 -11 -11 -12 -12 -12 -13 -13 -13 -13 -13 -13 -13 -13 -12 -12 -11 -10 -10 -9 -9
3 1 2 2 2 2 2 2 1 -0 -0 0 -1 -1 -3 -5 -6 -8 -8 -9 -10 -10 -10 -11 -12 -12 -13 -13 -13 -13 -13 -13 -14 -14 -14 -14 -14 -13 -13 -12 -11 -11 -10 -9
1 2 4 3 2 2 2 1 0 0 -0 -0 -1 -2 -3 -6 -7 -7 -8 -9 -10 -10 -11 -11 -12 -12 -13 -13 -13 -13 -13 -14 -14 -14 -14 -14 -14 -14 -13 -13 -12 -12 -11 -10
-1 2 2 2 2 2 2 1 1 0 0 -1 -2 -3 -4 -6 -7 -8 -9 -10 -10 -10 -11 -12 -12 -13 -13 -13 -13 -13 -14 -14 -14 -15 -14 -15 -14 -14 -14 -13 -13 -12 -12 -11
-1 3 3 3 2 2 1 -0 1 1 -1 -2 -3 -5 -5 -6 -7 -8 -9 -9 -10 -10 -11 -12 -12 -13 -13 -14 -14 -14 -14 -14 -14 -15 -15 -15 -15 -14 -14 -14 -13 -13 -13 -12
-1 -0 0 1 2 2 0 0 1 0 -1 -2 -4 -5 -6 -7 -8 -8 -9 -9 -10 -10 -11 -12 -12 -13 -13 -14 -14 -14 -14 -14 -14 -14 -15 -15 -15 -14 -14 -14 -14 -13 -13 -13
-2 -2 0 1 1 -0 1 1 1 -1 -2 -3 -4 -6 -7 -8 -8 -8 -9 -9 -10 -10 -10 -11 -12 -13 -13 -13 -14 -14 -14 -14 -14 -14 -15 -15 -15 -15 -14 -14 -14 -14 -14 -14
-1 1 1 2 2 2 2 1 -0 -1 -3 -4 -5 -7 -8 -8 -8 -8 -9 -9 -10 -10 -10 -11 -11 -12 -13 -13 -14 -14 -14 -14 -14 -14 -14 -14 -15 -15 -15 -15 -15 -15 -15 -14
-2 -1 1 2 2 2 1 0 -1 -2 -3 -5 -6 -7 -7 -7 -8 -8 -9 -9 -10 -10 -10 -10 -11 -12 -13 -13 -14 -14 -13 -13 -13 -14 -14 -14 -15 -15 -15 -15 -15 -15 -15 -15
-1 -0 1 1 2 1 0 -0 -1 -3 -4 -5 -6 -7 -7 -8 -8 -8 -9 -9 -9 -10 -10 -10 -11 -11 -12 -13 -13 -13 -13 -13 -13 -14 -14 -15 -15 -15 -15 -15 -15 -15 -15 -15
-0 1 1 1 1 1 0 -1 -2 -4 -5 -6 -6 -7 -7 -8 -8 -8 -9 -9 -9 -10 -10 -10 -11 -11 -12 -12 -13 -13 -13 -13 -14 -15 -15 -15 -15 -15 -15 -15 -15 -15 -15 -15
3 2 2 1 1 0 -0 -2 -3 -4 -5 -6 -6 -7 -7 -8 -8 -8 -8 -9 -9 -10 -10 -10 -10 -11 -11 -12 -12 -12 -13 -13 -14 -15 -15 -15 -15 -15 -15 -15 -15 -15 -15 -15
2 2 1 1 0 -0 -1 -3 -4 -5 -6 -6 -7 -7 -7 -8 -8 -8 -8 -9 -9 -10 -10 -10 -10 -10 -11 -11 -11 -11 -12 -13 -14 -14 -14 -14 -15 -15 -15 -15 -15 -15 -15 -15
2 2 1 1 0 -1 -2 -4 -4 -5 -6 -6 -7 -7 -7 -7 -7 -8 -8 -9 -9 -9 -9 -9 -10 -10 -10 -10 -10 -11 -11 -12 -14 -14 -14 -14 -14 -15 -15 -15 -15 -16 -16 -15
1 1 1 0 -0 -2 -3 -4 -5 -6 -6 -6 -7 -7 -7 -7 -8 -8 -8 -9 -9 -9 -9 -9 -9 -9 -10 -10 -10 -11 -11 -12 -13 -13 -13 -14 -14 -14 -15 -15 -15 -15 -16 -16
1 1 0 0 -1 -2 -3 -4 -5 -6 -6 -7 -7 -7 -7 -7 -7 -7 -7 -8 -8 -8 -8 -9 -9 -9 -10 -10 -10 -11 -11 -11 -12 -12 -13 -14 -14 -14 -14 -15 -15 -15 -15 -16
1 1 1 0 -1 -2 -3 -4 -5 -6 -6 -6 -6 -7 -7 -7 -7 -7 -7 -7 -7 -7 -8 -8 -9 -9 -9 -9 -10 -11 -11 -11 -12 -13 -13 -14 -14 -14 -14 -14 -14 -15 -15 -15
1 1 0 -0 -2 -3 -3 -4 -5 -6 -6 -6 -6 -7 -7 -7 -7 -7 -8 -7 -7 -7 -8 -8 -9 -9 -9 -9 -10 -10 -11 -11 -12 -13 -13 -14 -14 -14 -14 -14 -14 -14 -15 -15
0 0 -0 -1 -2 -3 -4 -5 -5 -6 -6 -6 -6 -7 -7 -7 -7 -7 -7 -7 -7 -7 -8 -8 -8 -9 -9 -9 -9 -9 -10 -11 -12 -13 -13 -13 -13 -14 -14 -14 -15 -15 -15 -15
0 -0 -1 -2 -2 -3 -4 -5 -5 -6 -6 -6 -7 -7 -7 -7 -7 -7 -6 -6 -7 -7 -7 -8 -8 -9 -9 -9 -9 -9 -10 -11 -12 -13 -12 -12 -13 -13 -14 -15 -15 -15 -15 -15
-0 -1 -1 -2 -3 -4 -4 -5 -6 -6 -6 -6 -7 -7 -7 -7 -7 -7 -7 -7 -7 -7 -7 -7 -8 -9 -9 -9 -8 -9 -10 -11 -12 -12 -12 -12 -12 -13 -13 -14 -15 -15 -15 -15
-0 -1 -2 -2 -3 -4 -5 -5 -6 -6 -6 -6 -7 -7 -7 -7 -6 -6 -6 -6 -6 -7 -7 -7 -8 -8 -9 -9 -8 -8 -9 -10 -11 -12 -12 -12 -12 -13 -13 -13 -14 -14 -15 -15
-1 -1 -2 -3 -4 -4 -5 -5 -6 -6 -6 -7 -7 -7 -7 -7 -7 -7 -7 -7 -6 -7 -7 -7 -7 -8 -8 -8 -8 -8 -9 -9 -10 -11 -11 -12 -12 -12 -13 -13 -13 -14 -14 -14
-1 -2 -2 -3 -3 -4 -5 -6 -6 -6 -6 -7 -7 -7 -7 -7 -6 -7 -7 -6 -6 -6 -6 -6 -7 -7 -8 -8 -8 -8 -9 -9 -10 -10 -10 -11 -11 -12 -12 -12 -13 -13 -13 -13
-1 -2 -3 -3 -4 -5 -5 -5 -6 -6 -6 -7 -7 -7 -7 -7 -7 -7 -7 -7 -6 -6 -6 -6 -7 -7 -7 -8 -8 -8 -8 -9 -9 -9 -10 -10 -10 -10 -11 -12 -12 -12 -13 -13
-2 -3 -3 -4 -4 -5 -5 -6 -6 -6 -6 -7 -7 -7 -7 -7 -7 -7 -7 -7 -6 -6 -6 -6 -6 -7 -7 -7 -8 -8 -8 -8 -9 -9 -9 -10 -10 -10 -10 -10 -10 -11 -11 -12
Wind_Speed
1 3 2 3 3 3 5 6 6 6 6 9 9 9 11 9 7 11 12 12 13 12 11 11 12 12 13 14 14 16 16 17 17 16 16 16 16 17 17 18 18 17 16 16
1 3 3 3 3 2 3 3 4 6 7 5 8 8 10 9 9 11 12 13 14 14 13 12 12 13 14 14 14 15 15 16 17 17 17 16 16 16 17 17 17 17 16 15
4 5 3 5 6 5 4 5 5 6 6 7 9 11 11 6 7 10 11 12 13 13 11 11 11 12 13 13 13 14 14 15 16 16 17 17 17 17 17 16 15 16 15 15
2 6 4 3 2 3 3 6 6 6 6 7 7 10 3 4 6 7 9 10 11 11 11 9 9 11 11 12 12 13 13 14 14 15 16 16 15 16 15 13 13 12 13 15
2 3 8 3 3 3 2 5 3 5 7 6 6 7 0 4 5 5 5 6 7 8 8 9 10 11 11 11 11 12 13 13 14 14 15 15 15 15 13 12 11 11 12 13
4 1 6 2 3 3 3 5 3 3 5 5 6 7 4 5 6 4 5 6 7 8 8 9 10 10 10 12 12 13 13 14 14 13 14 13 14 14 13 12 13 12 12 12
4 5 8 4 3 5 2 4 2 1 2 2 2 4 5 6 5 5 6 7 7 8 8 9 10 10 11 11 12 13 14 14 13 13 13 11 11 12 13 13 13 12 12 11
5 4 8 5 7 7 7 2 1 1 0 1 3 5 5 6 6 8 8 8 8 9 10 10 9 9 11 12 13 13 14 14 14 13 12 13 11 11 11 11 11 10 9 11
9 7 3 5 6 5 4 2 2 2 1 1 2 3 4 5 6 6 8 9 8 9 11 11 9 9 11 13 13 14 14 14 13 14 11 11 10 9 9 9 9 10 9 10
5 6 5 4 3 4 3 3 4 4 3 2 0 2 4 5 6 7 8 8 8 10 11 12 11 12 12 14 14 14 15 15 14 13 12 9 10 9 9 8 9 11 10 10
5 4 2 3 4 5 5 6 6 6 5 4 2 2 3 4 6 7 9 9 9 10 12 13 13 13 15 14 13 15 16 15 15 14 11 10 10 9 11 8 11 11 7 7
7 7 7 5 5 6 7 5 6 6 4 4 3 2 3 5 5 6 8 8 10 11 14 14 14 15 15 14 14 15 16 16 14 14 13 12 12 12 15 15 18 18 15 12
4 5 5 7 6 5 6 6 6 6 5 3 2 2 3 4 5 7 8 9 11 13 14 14 15 15 15 15 16 16 17 17 15 14 13 14 13 13 12 12 15 15 15 14
6 7 6 5 5 6 8 8 8 7 6 4 2 2 4 5 6 8 9 10 12 13 14 13 14 16 16 15 17 17 17 18 17 13 13 12 12 12 9 9 9 8 10 13
6 5 7 8 8 8 7 7 6 5 3 2 2 3 5 6 8 9 10 11 12 13 13 13 15 16 16 16 18 18 16 14 14 12 12 12 12 11 9 9 8 7 6 8
8 8 9 9 9 8 7 6 6 5 3 1 2 4 5 6 8 9 10 10 11 13 13 14 15 16 16 17 18 15 13 21 20 14 12 12 12 11 10 9 7 6 5 5
11 9 8 7 8 7 7 6 7 6 4 2 1 3 6 7 7 9 11 10 10 11 12 12 15 17 16 15 15 12 12 15 22 16 12 12 12 11 10 8 7 6 5 6
8 9 9 8 9 9 8 8 7 7 4 3 0 3 5 6 8 11 12 13 12 11 10 11 14 14 13 14 12 10 11 12 12 13 13 13 13 11 10 8 7 6 3 5
8 9 8 9 10 10 9 8 8 6 5 3 1 3 5 6 8 9 10 10 10 12 13 14 21 17 15 16 16 9 11 12 13 13 12 18 16 12 11 10 7 4 2 2
9 9 9 9 9 8 9 8 8 6 5 3 1 3 6 7 8 9 9 7 6 7 12 14 13 13 13 13 17 9 11 13 14 13 13 13 13 13 13 12 10 6 3 1
11 10 10 10 9 9 9 9 8 7 5 3 1 3 6 8 8 7 8 7 8 12 12 17 12 12 11 14 15 11 12 12 13 12 12 12 12 13 13 12 11 9 7 5
10 10 10 10 10 9 7 7 7 7 5 3 1 3 6 8 8 7 6 5 9 17 11 8 9 16 19 17 10 11 12 13 12 10 10 10 10 11 11 11 10 9 8 6
11 10 11 11 10 9 8 6 7 6 5 4 2 4 5 6 6 5 7 7 8 15 10 7 16 22 21 12 10 12 13 13 12 10 9 8 8 8 9 10 9 8 7 6
11 11 10 9 9 9 8 7 6 5 4 3 4 5 5 5 5 4 5 13 15 14 7 13 21 21 19 10 10 12 12 13 12 9 8 7 7 7 7 7 7 7 7 7
11 10 10 11 10 8 8 8 6 5 4 3 5 5 4 4 4 6 6 8 13 12 7 13 19 20 14 9 11 12 12 13 14 12 8 7 7 7 6 6 6 6 6 6
10 10 10 8 7 7 7 7 6 5 4 3 3 3 3 3 5 5 5 6 8 10 7 8 11 13 10 9 10 12 12 13 14 13 11 8 7 6 6 7 8 6 6 6
8 8 7 6 5 7 7 7 6 6 5 4 3 3 3 4 4 5 6 6 6 6 5 7 9 10 10 10 10 12 12 13 14 13 13 11 8 7 7 7 7 7 8 8
Wind_Direction
290 31 282 238 260 238 186 192 210 255 273 290 300 310 315 326 340 346 347 347 350 346 343 341 341 340 339 337 338 339 338 339 338 337 335 336 339 341 340 341 342 340 341 346
271 360 295 221 210 175 166 191 239 270 281 267 297 315 323 334 346 346 345 347 346 344 342 340 339 339 338 334 334 334 334 336 337 339 340 340 341 343 342 341 341 342 343 345
286 317 347 269 205 182 204 222 227 253 264 304 320 326 325 342 357 346 344 346 344 340 337 333 333 335 331 329 327 330 331 333 336 338 340 341 344 344 342 340 340 343 344 348
327 15 296 279 142 171 238 263 236 238 273 300 305 309 333 54 359 343 343 341 335 332 330 325 323 327 326 324 325 328 330 332 335 338 339 340 344 343 340 337 338 340 340 344
81 318 282 285 236 193 234 289 247 237 284 308 319 314 309 54 9 349 342 330 322 320 316 318 322 325 326 323 325 329 333 334 334 335 338 340 345 341 339 336 337 340 343 346
121 270 265 250 172 142 108 295 264 246 292 319 347 340 328 22 5 359 345 328 320 318 316 320 319 324 324 324 327 331 333 332 331 332 335 337 341 338 338 340 344 346 345 346
167 232 267 235 161 125 137 267 277 306 304 322 298 266 327 1 356 353 340 324 321 319 319 316 318 323 323 322 322 324 327 328 330 329 325 333 336 334 336 343 343 344 345 343
156 211 267 201 147 175 215 212 146 156 240 296 291 313 341 346 343 345 335 326 323 324 322 317 315 320 319 318 316 319 321 323 323 323 322 333 329 327 331 336 339 336 342 346
191 211 256 184 186 189 159 147 137 151 94 23 321 329 335 333 336 333 327 325 324 320 318 316 314 316 315 314 316 318 318 316 314 315 314 315 318 320 325 329 335 336 345 348
233 255 237 217 163 121 106 116 115 110 106 105 94 342 341 336 338 333 328 328 325 324 322 317 315 317 311 311 315 316 315 313 313 312 308 305 312 318 320 320 322 327 341 342
241 251 168 179 164 136 111 110 109 98 94 93 89 19 349 330 326 326 331 327 326 321 315 313 316 315 314 315 314 313 312 311 313 314 307 302 303 302 307 304 308 319 327 326
213 200 168 184 157 139 140 142 135 126 107 78 64 24 344 325 317 316 319 319 319 317 317 316 317 314 313 313 313 313 315 317 317 317 315 314 310 305 301 308 317 321 322 325
164 141 126 122 111 116 127 123 111 111 115 111 79 22 345 321 313 316 315 317 317 315 316 316 316 315 315 317 317 315 315 317 317 318 316 313 311 309 308 310 316 321 323 325
148 121 122 143 136 119 115 112 106 98 95 101 86 19 348 326 318 320 317 315 312 313 316 317 318 317 317 318 318 318 318 318 321 315 314 315 316 315 309 309 314 316 319 322
143 130 137 128 119 117 119 120 121 124 125 93 37 8 345 330 319 313 309 312 316 318 319 320 320 318 319 321 323 323 323 324 325 327 329 327 325 322 314 308 306 304 304 312
113 104 118 133 143 145 144 146 149 157 155 137 2 341 324 309 301 302 307 315 321 320 318 318 319 319 322 324 327 327 327 334 342 339 334 329 325 320 315 308 301 293 288 288
135 146 156 163 167 166 163 162 160 159 160 167 300 320 321 319 318 322 324 325 317 306 305 311 319 320 323 328 328 330 335 337 342 339 332 329 326 324 321 315 305 293 280 278
164 167 169 165 168 160 149 143 145 152 162 167 134 342 336 333 326 320 321 323 323 323 320 324 322 326 331 330 335 343 339 336 338 338 338 338 342 340 333 324 316 302 283 290
129 131 132 137 144 147 147 149 152 151 147 133 74 343 315 306 303 306 312 318 321 330 327 323 335 341 331 335 350 341 339 341 343 343 345 351 355 351 349 345 339 327 300 284
121 120 117 118 123 134 144 147 148 147 147 136 86 334 322 315 311 311 312 302 290 299 306 328 341 333 331 344 355 345 345 346 346 348 354 359 0 1 2 3 6 9 8 2
137 135 134 135 135 141 149 151 151 154 155 153 151 310 306 305 310 315 320 323 323 323 331 346 342 333 345 356 354 348 348 347 348 353 358 1 2 4 7 9 12 16 19 18
148 148 149 148 146 146 148 149 151 153 158 175 242 294 306 313 319 315 292 275 309 330 345 340 333 349 1 0 350 349 348 348 349 354 359 1 1 2 4 7 8 12 13 10
157 157 158 158 155 147 141 150 159 161 170 190 242 288 298 298 303 312 324 321 320 336 350 333 348 358 4 1 351 349 348 347 348 354 356 356 355 355 355 357 358 358 357 357
157 157 153 140 133 141 160 173 170 169 179 215 252 266 277 297 304 273 280 317 332 343 348 348 359 3 5 359 352 350 348 346 347 349 348 347 346 343 344 345 344 343 344 346
153 147 147 152 163 175 173 162 163 176 198 233 259 264 263 262 274 300 307 313 331 348 347 352 360 2 1 351 352 350 347 348 351 349 341 340 338 335 332 330 330 328 328 328
156 164 169 176 171 162 159 164 175 184 188 208 241 260 283 290 292 298 306 315 328 350 351 347 349 354 353 351 351 350 347 346 347 348 342 336 329 326 323 320 315 311 308 305
138 145 150 153 161 164 166 174 179 181 184 191 213 254 291 308 318 325 327 331 336 340 341 349 350 350 350 351 351 351 349 348 349 350 349 343 332 321 313 307 301 297 296 294
Height
1599 1601 1599 1597 1599 1599 1602 1603 1607 1604 1603 1598 1595 1592 1588 1584 1580 1577 1573 1569 1563 1557 1551 1545 1539 1534 1528 1521 1514 1507 1500 1492 1485 1478 1472 1466 1459 1453 1447 1441 1435 1429 1424 1418
1599 1602 1599 1599 1599 1599 1599 1599 1600 1601 1600 1595 1593 1590 1586 1582 1578 1575 1571 1566 1561 1555 1549 1543 1538 1532 1526 1519 1512 1505 1498 1491 1484 1477 1470 1464 1457 1452 1446 1440 1435 1429 1424 1419
1601 1603 1599 1599 1598 1597 1597 1597 1599 1600 1598 1593 1590 1587 1584 1580 1577 1574 1570 1565 1559 1554 1548 1542 1537 1531 1524 1517 1511 1504 1497 1490 1483 1476 1469 1463 1457 1451 1445 1439 1434 1429 1424 1420
1608 1604 1595 1596 1594 1595 1596 1595 1595 1594 1593 1592 1590 1586 1582 1579 1576 1572 1568 1563 1558 1552 1546 1541 1535 1529 1523 1516 1509 1502 1495 1489 1482 1475 1469 1462 1456 1450 1444 1439 1434 1430 1425 1421
1614 1606 1601 1596 1594 1594 1595 1594 1592 1592 1591 1589 1587 1583 1580 1578 1575 1571 1566 1561 1556 1551 1545 1539 1533 1527 1521 1514 1508 1501 1494 1488 1482 1475 1469 1463 1456 1450 1445 1440 1435 1430 1426 1422
1614 1602 1595 1591 1592 1591 1595 1595 1592 1590 1589 1587 1584 1583 1581 1577 1573 1569 1564 1559 1554 1549 1543 1537 1531 1525 1519 1512 1506 1500 1494 1488 1482 1476 1470 1463 1457 1451 1446 1441 1436 1432 1428 1423
1613 1612 1598 1591 1590 1593 1598 1595 1590 1589 1587 1585 1584 1584 1580 1576 1571 1567 1562 1558 1552 1547 1541 1535 1529 1523 1517 1511 1505 1500 1494 1488 1482 1476 1469 1464 1458 1452 1447 1442 1437 1433 1429 1425
1612 1615 1601 1587 1589 1592 1590 1588 1588 1587 1585 1584 1582 1580 1577 1573 1569 1565 1560 1556 1550 1545 1539 1533 1527 1521 1515 1510 1505 1499 1493 1487 1481 1475 1469 1463 1457 1452 1447 1442 1437 1433 1429 1425
1593 1590 1583 1583 1584 1586 1586 1586 1586 1584 1583 1581 1579 1577 1574 1571 1567 1563 1558 1554 1548 1543 1537 1532 1526 1520 1514 1508 1502 1496 1490 1484 1478 1472 1467 1462 1456 1451 1446 1442 1438 1434 1430 1426
1586 1582 1581 1582 1583 1584 1585 1584 1583 1582 1580 1578 1577 1575 1572 1569 1565 1561 1557 1552 1547 1541 1535 1530 1524 1519 1513 1506 1500 1494 1487 1480 1474 1468 1463 1459 1454 1450 1445 1441 1437 1434 1431 1427
1581 1579 1579 1580 1582 1583 1583 1582 1581 1580 1578 1577 1575 1573 1570 1567 1564 1560 1556 1551 1546 1540 1534 1528 1522 1517 1511 1504 1497 1490 1483 1476 1470 1464 1459 1454 1450 1447 1443 1440 1437 1434 1431 1428
1574 1572 1575 1577 1580 1581 1580 1580 1579 1577 1576 1575 1573 1572 1569 1566 1563 1559 1555 1550 1545 1540 1534 1527 1521 1515 1508 1502 1495 1488 1480 1473 1466 1461 1455 1450 1445 1441 1439 1437 1434 1431 1429 1427
1568 1570 1573 1575 1577 1578 1578 1577 1576 1576 1575 1574 1572 1570 1568 1566 1562 1559 1555 1550 1544 1539 1532 1526 1520 1513 1507 1500 1493 1486 1478 1471 1464 1458 1452 1447 1442 1438 1433 1430 1429 1426 1425 1424
1567 1569 1572 1574 1575 1576 1576 1575 1574 1574 1573 1572 1571 1570 1568 1565 1562 1558 1554 1549 1544 1538 1532 1526 1519 1513 1506 1499 1492 1484 1477 1469 1463 1457 1451 1445 1440 1435 1431 1427 1424 1422 1421 1420
1566 1568 1570 1571 1573 1573 1573 1573 1572 1572 1572 1571 1570 1569 1567 1564 1561 1558 1554 1549 1544 1538 1532 1525 1519 1512 1505 1498 1491 1483 1476 1468 1462 1456 1450 1444 1438 1433 1428 1425 1422 1419 1418 1418
1563 1566 1567 1569 1570 1570 1570 1570 1571 1571 1571 1570 1570 1568 1566 1564 1561 1558 1554 1549 1543 1537 1531 1524 1518 1512 1505 1498 1491 1483 1476 1469 1462 1455 1448 1441 1435 1430 1426 1422 1419 1417 1415 1415
1559 1562 1564 1566 1566 1567 1568 1568 1569 1569 1570 1569 1569 1567 1566 1564 1562 1558 1554 1550 1545 1539 1532 1526 1520 1513 1506 1499 1492 1484 1477 1469 1462 1454 1447 1440 1434 1428 1424 1420 1417 1414 1413 1413
1558 1560 1562 1563 1563 1564 1565 1566 1567 1568 1568 1568 1568 1567 1566 1564 1561 1558 1554 1550 1546 1541 1534 1528 1520 1514 1508 1501 1493 1486 1479 1471 1462 1455 1447 1440 1434 1428 1422 1418 1415 1413 1412 1411
1556 1558 1559 1560 1560 1561 1563 1564 1566 1567 1567 1567 1567 1567 1566 1564 1561 1558 1555 1550 1544 1538 1532 1526 1520 1516 1509 1502 1495 1488 1480 1473 1464 1457 1449 1442 1435 1428 1423 1418 1415 1413 1412 1411
1553 1555 1556 1557 1558 1560 1561 1563 1564 1565 1566 1566 1566 1566 1565 1564 1561 1558 1555 1550 1545 1539 1532 1526 1522 1516 1509 1503 1497 1491 1483 1475 1467 1459 1452 1445 1438 1431 1426 1421 1418 1415 1414 1413
1551 1553 1554 1555 1556 1558 1560 1561 1563 1564 1565 1565 1566 1566 1565 1563 1561 1559 1555 1550 1546 1540 1534 1529 1523 1516 1511 1506 1501 1493 1485 1477 1469 1463 1457 1450 1443 1436 1431 1426 1422 1420 1418 1416
1548 1550 1551 1553 1554 1556 1558 1560 1561 1563 1564 1564 1565 1565 1564 1563 1562 1559 1556 1551 1546 1540 1535 1530 1524 1519 1514 1509 1503 1495 1488 1480 1473 1467 1461 1454 1448 1442 1436 1432 1428 1424 1422 1419
1545 1547 1549 1551 1553 1554 1556 1558 1560 1561 1562 1563 1564 1564 1564 1563 1561 1558 1555 1551 1546 1541 1537 1531 1526 1521 1517 1511 1505 1498 1490 1483 1476 1471 1466 1459 1453 1448 1442 1437 1433 1429 1426 1423
1542 1544 1546 1548 1550 1552 1554 1557 1558 1560 1561 1562 1563 1564 1564 1563 1562 1559 1555 1551 1547 1542 1538 1533 1528 1523 1518 1513 1507 1500 1493 1486 1480 1475 1470 1464 1458 1452 1447 1442 1438 1433 1430 1426
1539 1541 1543 1545 1547 1550 1553 1555 1556 1558 1560 1561 1562 1563 1563 1562 1561 1559 1556 1552 1548 1544 1540 1535 1530 1525 1520 1514 1509 1503 1497 1490 1485 1479 1473 1467 1462 1456 1451 1446 1441 1437 1433 1429
1536 1538 1541 1543 1545 1548 1550 1552 1554 1556 1558 1560 1561 1562 1562 1561 1561 1559 1557 1553 1549 1545 1541 1537 1532 1527 1521 1516 1511 1506 1500 1494 1488 1482 1476 1471 1465 1460 1454 1449 1444 1439 1435 1431
1533 1535 1537 1539 1541 1544 1547 1549 1552 1554 1556 1558 1560 1561 1561 1561 1561 1560 1557 1554 1551 1547 1543 1538 1534 1529 1524 1519 1514 1509 1503 1497 1491 1486 1480 1475 1469 1463 1458 1452 1446 1441 1436 1431